NINGXIA-1 5

Satellite information

Favourite Embed

Satellite Type and Status

PAYLOADIN ORBIT

Key statistics

Satellite NINGXIA-1 5 at a glance.

Uptime

2063

Days in orbit

Revolutions

≈ 14.0

Per day

Orbit

LEO

Low Earth Orbit

Inclination

45.0

Latest

Satellite identification and parameters

Extended collection of information and parameters for NINGXIA-1 5.

Object identification

Identified? True

Debris? False

Object name: NINGXIA-1 5

International designator: 2019-076E

Object number (NORAD): 44783

Object ID (CCSDS): 44783

Country: PEOPLES REPUBLIC OF CHINA (PRC)

Current information (Y/N): Y

RCS size: MEDIUM

Orbital parameters

Period: 102.714 minutes

Inclination: 45.007 deg

SMA: 7265.184 km

Apoapsis: 895.305 km

Periapsis: 878.793 km

RAAN: 287.0381 deg

Eccentricy: 0.0011364

Argument of periapsis: 301.1629 deg

Mean anomaly: 58.809 deg

Mean motion: 14.01951016 rev/day

Mean motion (dot): -0.00000123 rev/day2

B* drag term: 0.0000044731 1/REarth

Two-line elements (TLE)

Creation date: July 5, 2025, 10:46 p.m.

Reference frame: TEME

Reference center: EARTH

Epoch: July 5, 2025, 7:12 p.m. UTC

TLE line 0: 0 NINGXIA-1 5

TLE line 1: 1 44783U 19076E 25186.80009315 -.00000123 00000-0 44731-5 0 9998

TLE line 2: 2 44783 45.0070 287.0381 0011364 301.1629 58.8090 14.01951016289254

Live tracking on map

Real-time ground track for satellite NINGXIA-1 5.

In-orbit conjunctions

There are no conjunctions computed for NINGXIA-1 5, at the moment. Check back to stay up to date, as we update our databases every day.

Go to all conjunctions

Associated space launch

Ningxia 1 is a constellation of remote sensing satellites developed by Dongfanghong Satellite Co., Ltd.

NINGXIA-1 5 was lifted into orbit during the mission ‘Long March 6 | Ningxia 1 (x5)’, on board a Long March 6 space rocket.

The launch took place on Nov. 13, 2019, 6:35 a.m. from Launch Complex 16.

For more information about the launch, click the button.

Launch to space Long March 6 | Ningxia 1 (x5)
Long March 6 | Ningxia 1 (x5)

Agency: N/A

Status: Launch Successful

Launch date: Nov. 13, 2019, 6:35 a.m. UTC

Rocket: Long March 6

Launch pad: Launch Complex 16

Location: Taiyuan Satellite Launch Center, People's Republic of China

...

Latest news about this satellite

News about space launch
Long March 6 lofts five Ningxia-1 satellites

News about space launch
Two Chinese satellite launchers lift off three hours apart


Newsletter sign-up

Weekly statistics, charts and insights to help you stay on top of the space industry.